Showing default

JILIN-01 GAOFEN 3D 30, 52447

Orbit data source: Space-Track

JILIN-01 GAOFEN 3D 30, 52447 is a payload satellite owned by Changguang WJ (CN) in SSO that was launched on Thu, 05 May 2022 UTC via a CHANG ZHENG 2D launch vehicle from the Taiyaun Space Center, China (TSC). Payload-class satellites include a variety of spacecraft equipped with specific instruments for various scientific and technological missions. These include communications satellites like Starlink; space stations such as the ISS; scientific satellites like the Hubble; Earth observation satellites from companies like Planet Labs, Umbra, and HawkEye 360; GPS; miniature CubeSats for education and research; and military/defense satellites.

Not visible in the next 10 days
Identifier
52447, 2022-048E
Orbit
SSO
Country
Flag of CNCN / PRC
Related business
Manufacturer
Changguang WJ
Mission
Operational Commercial Imaging
Bus & Motor
JL-1, Unknown motor
Mass
42 kg wet, 42 kg dry
Launch date (UTC)
2022-05-05 (4 years ago)
Launch vehicle
CHANG ZHENG 2D
Launch site
Taiyaun Space Center, China (TSC)
Object type
Payload
Rocket body
Debris
Shape & HBR
Box + 2 Pan, 0.8 m
Radar Cross Section
2.000 m², Medium (>0.1 m² and < 1m²)

Expand to show TLE details & history
Last TLE update: 4 hours ago

TLE from 4 hours ago
0 JILIN-01 GAOFEN 3D 30
1 52447U 22048E   26170.16781756  .00593903  16803-3  94887-3 0  9994
2 52447  97.5648 288.5690 0007078 262.9089  97.1386 16.03645659230081
Epoch: 2026-06-19T04:01Z
TLE epoch observation values (Epoch: 2026-06-19T04:01:39.437Z)
Latitude
0.00001°
Longitude
-39.246°
Altitude
268.118 km
Speed
7.746 km/s
True Right ascension
19h 14m 16s
True Declination
0° 00' 00"
Sunlit
Object was in full shadow at epoch
Visualization orbit readout
Latitude
Unknown
Longitude
Unknown
Altitude
Unknown
Speed
Unknown
Apparent Right ascension
Unknown
Apparent Declination
Unknown
Sunlit
N/A
Visualization observer readout
Local Sidereal Time
19:18:24
Azimuth
Unknown
Elevation
Unknown
Doppler factor
Unknown
Orbital elements
Apogee altitude
265.894 km
Perigee altitude
256.496 km
Semi-major axis
6,639.332 km
Eccentricity
0.00071
Inclination
97.5648°
RAAN
288.569°
Arg. of periapsis
262.9089°
True anomaly
97.21907°
Mean anomaly
97.1386°
Eccentric anomaly
97.17884°
Mean motion
4.01196 °/min
Orbital period
89.73 mins
BSTAR
0.00094887
Loading maneuver chart data...
Computing Atmospheric mass density...
Loading historical data...
Loading historical data...
Loading historical data...
Loading historical data...
Loading historical data...
Loading historical data...
Loading historical data...

Documentation

Showing up to 5 results
|